ZKLFL NZWN-NZWN

Flight info

Callsign ZKLFL
Flight time 0h 15m
Altitude 1500
Route VFR
Aircraft BE20/L-SBGRY/S

Departure

Time 2026-05-04 09:46
Airport Wellington International Airport (NZWN)

Arrival

Time 2026-05-04 10:02
Airport Wellington International Airport (NZWN)
Time Latitude Longitude Altitude Speed Heading
2026-05-04 09:37 -41.32601 174.80478 8 ft 0 kts 272°
2026-05-04 09:42 -41.32741 174.80686 8 ft 14 kts 182°
2026-05-04 09:43 -41.32874 174.80677 8 ft 22 kts 181°
2026-05-04 09:43 -41.33051 174.80665 8 ft 27 kts 184°
2026-05-04 09:43 -41.33258 174.80653 8 ft 31 kts 185°
2026-05-04 09:43 -41.33419 174.80641 8 ft 17 kts 183°
2026-05-04 09:44 -41.33512 174.80630 8 ft 5 kts 103°
2026-05-04 09:44 -41.33489 174.80636 8 ft 0 kts
2026-05-04 09:46 -41.31633 174.80731 507 ft 118 kts
2026-05-04 09:46 -41.30836 174.80776 978 ft 114 kts
2026-05-04 09:46 -41.30018 174.80829 1299 ft 123 kts
2026-05-04 09:47 -41.29118 174.81001 1449 ft 135 kts 21°
2026-05-04 09:47 -41.28518 174.81860 1475 ft 131 kts 66°
2026-05-04 09:49 -41.34318 174.83951 1503 ft 171 kts 184°
2026-05-04 09:49 -41.35517 174.83850 1337 ft 172 kts 182°
2026-05-04 09:49 -41.36447 174.83192 1130 ft 138 kts 242°
2026-05-04 09:51 -41.33727 174.80614 98 ft 94 kts
2026-05-04 09:51 -41.33188 174.80657 9 ft 70 kts
2026-05-04 09:51 -41.32519 174.80688 166 ft 106 kts
2026-05-04 09:51 -41.31765 174.80748 464 ft 112 kts
2026-05-04 09:52 -41.30964 174.80787 882 ft 115 kts
2026-05-04 09:52 -41.30166 174.80798 1309 ft 116 kts
2026-05-04 09:52 -41.29335 174.80890 1563 ft 128 kts 13°
2026-05-04 09:52 -41.28589 174.81700 1481 ft 155 kts 58°
2026-05-04 09:53 -41.28544 174.83123 1500 ft 163 kts 105°
2026-05-04 09:53 -41.29319 174.84216 1503 ft 169 kts 152°
2026-05-04 09:53 -41.30476 174.84433 1519 ft 168 kts 180°
2026-05-04 09:53 -41.31649 174.84359 1504 ft 169 kts 183°
2026-05-04 09:54 -41.32820 174.84257 1500 ft 169 kts 184°
2026-05-04 09:54 -41.34002 174.84143 1499 ft 171 kts 183°
2026-05-04 09:54 -41.35186 174.84009 1505 ft 170 kts 184°
2026-05-04 09:54 -41.36126 174.83416 1438 ft 139 kts 242°
2026-05-04 09:55 -41.36318 174.82282 1295 ft 116 kts 282°
2026-05-04 09:55 -41.36057 174.81273 953 ft 113 kts 313°
2026-05-04 09:55 -41.35437 174.80709 708 ft 102 kts 345°
2026-05-04 09:55 -41.34782 174.80566 372 ft 98 kts 358°
2026-05-04 09:56 -41.34085 174.80595 214 ft 99 kts
2026-05-04 09:56 -41.33399 174.80640 26 ft 92 kts
2026-05-04 09:56 -41.32845 174.80677 34 ft 94 kts
2026-05-04 09:56 -41.32154 174.80708 384 ft 102 kts
2026-05-04 09:57 -41.31427 174.80767 749 ft 107 kts
2026-05-04 09:57 -41.30668 174.80830 1099 ft 111 kts
2026-05-04 09:57 -41.29876 174.80872 1392 ft 119 kts
2026-05-04 09:57 -41.29150 174.81447 1496 ft 134 kts 52°
2026-05-04 09:58 -41.29042 174.82734 1516 ft 155 kts 102°
2026-05-04 09:58 -41.29768 174.83846 1514 ft 169 kts 148°
2026-05-04 09:58 -41.30927 174.84108 1525 ft 171 kts 179°
2026-05-04 10:00 -41.36142 174.80702 1122 ft 115 kts 342°
2026-05-04 10:00 -41.35435 174.80521 629 ft 100 kts
2026-05-04 10:02 -41.32673 174.80504 8 ft 9 kts 290°
2026-05-04 10:04 -41.32642 174.80504 8 ft 0 kts 15°